Flag for Germany Weather past 2 weeks in Alsfeld, Hesse, Germany

Now
56 °F

Clear.


Feels Like: 56 °F
Forecast: 63 / 87 °F
Wind: 2 mph from Northwest

Location: Fritzlar

Current Time: Jul 1, 2015 at 4:54:33 AM

Latest Report: Jul 1, 2015 at 4:00 AM


Visibility: 22 mi

Pressure: 30.17 "Hg

Humidity: 82%

Dew point: 51 °F

Location of AlsfeldLocation

Historic Weather in Alsfeld — Graph

°F

Alsfeld temperature yesterday

Maximum temperature yesterday: 80 °F (at 6:00 PM)
Minimum temperature yesterday: 54 °F (at 6:00 AM)
Average temperature yesterday: 67 °F

Past Weeks' High & Low Weather Summary

 TemperatureHumidityPressure
High80 °F (Jun 29, 3:00 PM)97% (Jun 22, 4:00 AM)30.32 "Hg (Jun 22, 4:00 AM)
Low41 °F (Jun 17, 6:00 AM)35% (Jun 17, 6:00 PM)29.67 "Hg (Jun 23, 1:00 AM)
Average59 °F71%30.08 "Hg
* Reported Jun 16 3:00 AM — Jul 1 3:00 AM, Alsfeld, Weather by CustomWeather, © 2015

Note: Actual official high and low records may vary slightly from our data, if they occured in-between our weather recording intervals... More about our weather records

Advertising

Alsfeld weather history for previous 24 hours

 ConditionsComfort  
Time TempWeatherWind HumidityBarometerVisibility
3:00 AM
Wed, Jul 1
58 °FClear.3 mph80%30.17 "Hg25 mi
2:00 AM58 °FClear.3 mph82%30.17 "Hg25 mi
1:00 AM58 °FClear.2 mph85%30.17 "Hg25 mi
12:00 AM60 °FClear.1 mph80%30.17 "Hg25 mi
11:00 PM
Tue, Jun 30
64 °FClear.2 mph69%30.16 "Hg31 mi
10:00 PM73 °FClear.3 mph44%30.13 "Hg31 mi
9:00 PM77 °FSunny.2 mph44%30.11 "Hg31 mi
8:00 PM79 °FSunny.3 mph38%30.11 "Hg31 mi
6:00 PM80 °FPassing clouds.3 mph35%30.11 "Hg31 mi
4:00 PM79 °FPassing clouds.2 mph38%30.14 "Hg28 mi
3:00 PM78 °FPassing clouds.3 mph37%30.14 "Hg25 mi
2:00 PM77 °FPassing clouds.3 mph40%30.16 "Hg25 mi
1:00 PM75 °FPassing clouds.3 mph44%30.17 "Hg22 mi
12:00 PM73 °FPassing clouds.3 mph48%30.18 "Hg19 mi
11:00 AM72 °FPassing clouds.3 mph56%30.19 "Hg16 mi
10:00 AM68 °FPassing clouds.2 mph64%30.20 "Hg16 mi
9:00 AM65 °FPassing clouds.N/A71%30.21 "Hg16 mi
8:00 AM60 °FPassing clouds.2 mph80%30.21 "Hg16 mi
7:00 AM56 °FScattered clouds.1 mph87%30.21 "Hg16 mi
6:00 AM54 °FScattered clouds.3 mph90%30.20 "Hg16 mi
5:00 AM54 °FPassing clouds.2 mph87%30.19 "Hg16 mi
4:00 AM56 °FOvercast.3 mph84%30.19 "Hg11 mi
Weather by CustomWeather, © 2015

See weather overviewHow to use our weather pages